GFSMA_500_rhum_060.txt.gz
RH
91 97 97 100 95 94 93 64 79 81 79 77 63 56 58 75 74 72 77 81 70 74 49 41 22 14 12 18 8 9 28 10 9 12 11 11 12 12 30 31 27 25 27
92 94 92 96 95 93 89 68 75 87 74 81 74 64 69 75 81 83 84 77 74 60 40 38 42 14 20 22 36 37 40 15 12 9 9 13 22 21 23 28 26 37 38
92 92 90 82 99 95 90 69 72 86 84 80 70 71 72 69 84 90 83 80 75 54 51 36 17 24 31 42 50 48 14 11 10 14 24 36 36 34 34 32 44 41 25
90 97 95 97 90 95 89 74 87 90 88 82 69 69 73 78 86 87 86 77 76 60 63 37 26 51 49 58 36 16 13 13 12 22 36 36 36 40 48 52 40 19 17
94 99 97 97 96 96 94 75 86 91 93 85 80 77 82 75 78 84 86 86 84 78 77 38 40 48 73 60 31 34 15 13 13 13 20 34 35 41 41 28 30 10 9
98 98 97 96 97 96 95 82 83 96 97 87 85 78 80 78 79 83 93 90 95 92 46 35 33 54 54 58 27 28 15 16 14 12 20 32 35 42 38 25 12 9 10
97 98 95 96 98 96 96 90 92 96 96 94 87 90 86 77 80 89 92 96 95 83 49 39 49 58 65 58 28 21 19 24 15 15 26 36 44 46 35 17 13 20 39
96 96 97 88 95 96 96 96 97 96 96 96 94 85 79 78 89 93 93 95 94 96 81 58 51 58 62 53 30 24 25 20 18 26 49 51 60 63 49 22 22 63 39
96 95 94 94 98 94 97 97 96 96 96 95 83 83 83 94 93 92 92 89 92 91 80 64 63 61 54 42 30 28 24 17 19 37 66 78 84 75 55 30 58 40 12
95 97 96 95 88 94 97 97 96 95 93 97 82 89 86 85 95 100 88 80 83 86 83 70 68 68 51 42 39 30 23 22 35 83 91 98 97 90 86 82 68 13 13
95 95 96 94 93 90 94 98 96 86 88 81 81 69 70 69 76 87 90 96 84 89 84 78 75 73 65 48 32 26 33 52 64 86 87 86 100 98 93 75 31 15 14
93 95 96 96 92 83 91 98 94 93 72 62 77 94 84 85 83 91 90 82 78 89 89 94 93 75 51 49 60 64 71 80 95 100 86 86 93 88 90 63 52 32 16
47 51 42 53 56 66 89 97 99 89 81 89 85 100 95 83 78 93 99 100 86 85 89 84 86 82 69 67 71 76 88 91 92 97 96 94 98 86 62 58 57 34 20
17 18 14 19 24 38 48 57 63 57 71 66 79 100 94 93 83 92 85 92 79 74 61 71 73 71 79 87 92 88 87 81 86 93 98 98 96 63 72 69 70 43 24
14 13 13 17 20 24 28 28 30 38 37 41 39 41 40 52 55 67 75 82 72 72 73 77 76 87 98 92 92 84 71 71 86 100 97 98 72 65 52 42 46 45 24
24 26 23 20 20 24 26 26 49 65 58 54 63 54 46 49 61 52 39 39 47 73 66 84 78 78 80 85 87 91 76 77 97 93 78 75 75 76 55 43 35 28 26
32 32 24 26 33 62 64 61 61 72 75 73 85 86 84 82 88 93 94 82 67 73 63 66 67 88 90 97 95 97 73 86 87 91 84 69 55 46 31 28 27 27 28
29 37 49 58 62 60 56 53 54 48 47 50 51 60 76 76 73 91 99 100 100 99 84 74 85 99 94 100 98 93 77 78 86 72 51 33 31 28 30 35 40 40 39
37 38 38 44 55 50 48 49 42 26 26 26 28 32 34 41 62 85 82 72 88 99 97 91 74 82 91 96 91 98 80 75 72 71 70 58 45 48 44 39 38 42 51
45 45 42 47 50 43 40 39 37 34 33 32 31 28 25 24 32 71 90 86 94 86 95 88 77 88 98 99 96 90 90 97 71 79 68 68 63 68 80 50 39 50 56
49 53 45 51 49 44 44 46 48 47 39 35 32 29 24 26 30 41 70 67 96 100 99 95 97 92 86 92 89 88 75 98 100 100 82 77 72 81 67 52 42 50 70
57 48 51 61 63 60 52 48 50 54 40 29 28 24 26 33 38 46 54 75 93 99 88 92 97 89 87 94 88 64 77 100 64 100 99 85 92 85 46 40 63 82 85
69 68 49 47 53 62 64 62 66 60 58 38 36 30 37 40 50 62 69 74 80 78 77 92 90 67 99 91 52 74 100 79 45 100 85 98 71 68 74 80 84 93 97
68 85 84 55 58 59 66 81 87 75 67 62 56 43 46 35 39 53 68 64 56 65 62 65 55 46 36 48 85 55 37 43 78 98 100 94 94 93 78 90 98 100 99
94 97 63 60 59 70 73 93 89 82 84 72 74 68 48 53 58 55 32 33 36 42 37 37 34 25 30 54 46 41 48 50 80 98 100 98 97 87 86 88 100 98 100
67 63 64 53 62 82 79 69 67 71 72 82 67 52 70 75 69 70 72 60 65 63 61 60 94 80 76 60 63 77 54 84 100 100 100 97 88 86 79 87 97 100 100

GFSMA_500_rhum_066.txt.gz
RH
84 60 73 69 68 70 75 86 84 89 97 96 81 77 88 66 80 74 60 83 76 70 72 72 65 63 55 34 11 9 7 6 6 7 15 14 14 12 12 17 17 20 24
74 68 73 100 99 85 94 96 95 89 96 95 82 86 84 71 72 62 69 76 72 82 80 75 74 66 52 40 12 10 14 8 10 17 27 22 15 12 24 24 24 28 26
92 84 93 100 95 100 99 97 94 85 89 95 95 84 82 71 81 64 74 79 73 75 78 81 75 65 61 30 15 12 19 12 34 42 34 31 12 13 18 28 32 34 38
74 69 87 91 95 90 95 97 80 92 87 91 96 90 80 70 82 74 77 75 70 70 85 83 78 67 48 29 33 14 20 36 41 42 38 21 14 13 12 18 25 33 44
90 74 78 71 85 84 75 78 79 95 96 88 97 96 87 77 76 80 80 78 71 76 86 86 79 72 59 42 27 24 37 48 56 50 34 20 17 17 15 14 20 34 49
84 72 69 75 86 79 84 77 83 100 95 91 96 94 96 85 80 85 86 76 78 88 91 91 84 83 63 47 34 47 54 56 56 63 62 25 21 24 24 15 47 56 59
81 83 79 79 69 90 83 85 69 76 87 97 96 96 97 95 93 95 83 88 88 91 96 95 94 88 80 90 36 39 48 51 60 67 67 39 28 29 26 18 37 66 67
82 88 80 76 76 79 80 94 94 83 72 97 96 96 95 96 97 91 90 93 90 90 97 98 99 99 100 95 60 32 38 54 59 62 53 41 34 31 26 20 29 52 62
89 92 98 91 74 83 93 96 95 82 93 97 96 98 96 97 95 96 96 92 87 86 94 98 98 99 100 96 65 36 39 43 56 60 60 41 38 35 24 34 58 75 75
100 99 97 96 93 99 87 83 76 89 95 98 97 95 99 97 98 94 92 94 95 93 100 100 96 89 83 95 85 78 56 42 56 62 57 50 51 33 58 77 84 83 72
97 99 100 96 95 95 88 94 88 92 97 97 98 98 98 98 93 96 95 86 80 86 86 86 91 85 95 98 89 77 65 71 73 68 62 51 48 69 81 76 76 77 76
97 96 97 98 98 93 98 100 99 96 97 99 99 98 98 98 95 87 71 68 76 76 75 78 87 90 86 80 87 94 95 99 79 62 68 70 69 62 63 68 70 71 76
98 98 97 97 96 98 91 94 97 96 97 97 97 94 92 93 82 62 59 61 64 70 72 83 79 75 78 81 88 87 84 83 76 77 77 74 71 74 75 66 57 73 68
69 96 94 96 97 97 97 97 98 96 96 94 94 92 79 76 68 64 75 79 86 87 79 87 85 90 91 84 80 79 77 80 78 82 76 80 90 80 89 71 65 71 81
15 32 42 46 52 53 58 66 49 44 63 82 78 78 70 72 70 66 72 69 59 40 38 62 58 88 82 67 62 53 52 61 68 73 76 87 92 94 88 90 85 76 85
21 17 15 15 16 20 22 24 33 38 36 42 50 60 52 51 49 48 50 50 44 38 30 56 79 84 92 90 98 95 87 80 85 90 93 88 79 80 78 87 88 75 80
26 23 23 24 25 24 23 23 23 24 26 28 32 53 65 64 58 70 82 88 91 92 73 76 81 96 89 97 93 93 93 94 95 96 94 93 85 90 86 87 88 89 87
24 23 23 25 32 39 38 43 43 58 63 61 63 60 63 64 64 65 64 66 66 71 60 54 60 67 81 90 93 86 96 95 92 98 100 89 83 89 94 95 95 92 90
29 27 28 32 34 36 36 37 36 43 50 55 55 53 49 40 34 31 32 30 30 30 28 26 26 26 27 39 60 55 74 93 91 95 90 91 95 92 94 94 86 97 99
43 46 42 35 35 39 44 42 44 53 59 59 51 44 42 41 40 45 43 41 38 34 31 30 29 28 27 28 32 40 54 78 94 95 88 95 100 98 91 86 65 67 98
43 50 51 52 48 48 53 57 56 47 44 47 48 45 45 47 48 46 46 52 50 42 28 24 26 32 33 35 46 58 56 67 74 76 68 64 71 84 63 100 31 89 98
56 50 54 55 58 58 64 70 72 60 52 56 51 54 62 63 64 71 74 77 76 67 68 58 36 34 42 30 29 30 33 39 37 41 57 41 42 64 64 66 56 92 88
72 74 76 69 69 62 68 71 75 66 68 69 72 81 81 88 91 92 98 99 94 75 67 74 64 55 40 46 52 58 68 68 68 67 86 83 72 71 82 99 100 99 92
75 80 76 73 66 68 81 80 88 83 80 84 84 78 76 87 89 100 98 94 81 62 67 80 92 72 73 78 85 92 87 72 80 87 98 97 88 98 96 87 97 100 100
79 82 80 86 84 81 79 84 89 99 98 96 94 82 77 86 96 100 100 94 80 81 66 71 81 92 90 87 87 89 78 97 96 98 99 100 99 97 98 95 95 95 98
58 72 72 84 82 78 81 96 94 94 88 92 93 83 80 72 78 100 100 100 100 91 73 67 78 83 88 85 88 81 98 89 100 87 89 98 99 100 99 99 100 100 100

GFSMA_500_rhum_072.txt.gz
RH
93 90 94 95 100 91 88 79 95 92 99 98 94 96 94 97 91 89 96 88 80 80 75 74 74 68 67 61 54 46 31 25 11 8 6 6 7 6 7 8 10 12 17
90 96 96 96 98 96 95 85 91 87 92 91 86 96 97 96 87 95 93 85 80 70 76 81 77 72 71 71 63 53 47 40 20 9 8 7 7 7 8 14 23 18 16
90 97 95 97 98 97 92 79 82 88 76 83 95 94 97 96 94 95 94 84 76 65 70 88 87 76 77 76 69 67 65 45 23 12 9 9 9 8 17 28 27 16 15
97 96 96 99 99 96 71 80 65 87 94 96 96 95 97 97 95 100 94 86 79 63 72 83 89 84 77 80 80 71 66 42 25 14 12 12 15 20 34 28 23 17 23
90 95 98 98 97 60 76 96 76 93 100 97 98 96 96 98 93 91 92 90 88 76 74 89 91 84 77 81 90 83 74 43 35 22 15 16 23 36 38 43 38 29 17
92 97 96 97 69 55 89 95 94 100 98 94 92 98 92 97 98 89 87 91 93 93 90 87 91 88 86 88 94 89 80 65 49 35 19 19 28 48 53 57 62 59 30
98 97 89 92 71 79 88 80 81 84 84 91 93 92 80 97 96 98 96 90 90 90 87 94 96 96 95 96 95 95 91 78 59 63 42 37 43 52 56 59 59 68 57
96 97 96 80 72 84 75 72 81 89 92 96 96 99 97 96 96 97 98 97 90 96 96 95 96 96 96 96 96 99 88 84 68 76 58 55 58 55 57 55 62 66 63
97 96 96 96 97 92 88 85 100 100 98 95 91 94 93 92 97 97 97 97 97 95 96 96 96 96 97 98 99 99 93 86 85 85 94 95 50 31 34 56 49 51 61
96 97 98 97 93 96 92 98 95 100 100 100 98 93 95 97 92 96 97 97 97 97 96 97 96 95 98 98 96 96 94 92 93 93 96 95 55 58 66 42 54 61 61
77 90 96 97 97 97 96 97 98 92 96 98 98 95 98 100 98 96 96 99 99 96 89 98 98 97 97 97 98 99 99 99 97 94 92 88 85 81 64 67 65 76 65
79 80 84 94 96 92 89 95 97 97 92 98 98 96 98 96 98 97 98 94 92 96 98 97 97 97 97 97 96 90 96 95 94 89 86 83 78 78 76 77 82 79 78
76 81 93 99 97 94 97 96 96 100 98 97 98 98 96 96 96 97 95 96 98 97 96 97 97 96 96 95 88 79 73 74 78 77 74 74 79 83 84 82 81 80 79
78 85 92 95 97 98 96 95 96 98 97 95 92 96 96 96 96 98 98 96 95 96 96 98 96 96 98 99 75 71 75 75 76 75 80 82 82 81 84 80 66 71 83
30 80 87 97 97 98 94 93 96 95 92 88 95 90 92 100 97 97 98 95 97 96 92 97 84 87 91 89 93 89 84 86 85 79 80 82 78 78 85 94 90 90 90
15 15 44 82 93 96 97 98 98 98 97 94 94 94 97 100 96 92 98 97 85 73 68 89 93 100 96 95 98 88 69 66 68 77 88 93 96 98 97 83 81 89 93
15 17 18 16 17 26 42 69 83 86 76 67 62 53 58 78 96 99 98 93 77 69 55 99 100 100 91 76 77 84 87 89 89 84 81 80 79 85 68 69 48 60 85
17 19 20 19 20 20 20 19 18 18 19 20 22 24 28 31 45 70 83 69 47 57 63 64 62 60 74 85 74 63 51 34 32 32 32 32 32 32 30 40 60 50 48
27 22 20 21 21 21 22 23 24 27 29 28 28 28 28 34 42 36 41 57 66 64 58 53 51 52 46 38 33 33 38 38 35 31 27 24 26 30 33 33 36 46 64
45 38 34 32 26 23 24 25 25 24 24 27 28 29 30 33 46 55 56 54 52 48 45 39 38 40 39 40 38 38 40 49 53 51 48 36 29 32 34 38 41 40 38
63 54 46 40 40 41 40 40 40 40 38 35 37 40 42 41 38 36 34 41 44 41 41 37 31 29 34 41 46 60 54 65 68 75 67 67 63 45 49 50 41 52 64
93 81 84 96 95 71 50 47 46 45 46 48 49 48 49 51 54 55 48 41 39 36 36 34 31 33 38 51 65 74 79 74 68 94 68 68 73 69 66 63 82 88 83
87 84 87 91 97 100 97 94 90 79 79 79 71 62 58 60 63 64 67 68 68 66 57 50 45 49 56 67 69 68 72 77 81 74 75 82 82 81 71 84 86 92 86
75 76 77 75 80 80 83 96 98 98 96 100 100 99 97 96 92 84 79 76 75 85 81 76 77 74 66 63 72 69 64 71 75 83 84 78 68 70 74 74 77 78 81
69 68 62 59 54 50 50 71 94 98 90 87 95 99 97 90 95 100 98 97 98 97 95 99 100 92 70 73 90 97 89 88 87 84 77 82 76 69 71 96 88 77 71
72 77 72 53 38 37 41 54 60 60 53 47 67 80 87 76 74 86 98 98 97 97 99 97 95 96 79 73 89 99 100 99 95 98 91 100 93 89 88 97 99 94 92

GFSMA_500_rhum_075.txt.gz
RH
73 96 95 95 95 98 96 78 77 76 40 38 98 79 74 82 62 89 98 92 96 91 81 74 76 72 70 63 60 54 52 52 36 13 8 6 6 6 7 7 7 7 7
84 95 97 97 96 97 95 83 87 82 79 93 99 85 78 96 99 99 94 96 90 92 87 78 78 75 73 68 68 61 58 56 34 22 11 8 8 7 7 8 7 9 14
90 92 94 98 94 99 96 95 86 75 81 78 87 90 90 95 100 98 89 95 89 96 92 84 86 83 78 74 70 68 64 62 48 44 35 11 10 9 9 10 10 15 24
94 95 98 97 98 98 93 97 99 81 83 75 93 96 98 98 94 97 95 93 89 93 89 88 92 90 89 79 70 72 74 70 64 57 43 18 15 13 12 13 18 28 27
95 91 85 91 97 97 98 98 86 75 84 94 100 96 95 95 92 100 97 94 92 92 83 85 86 84 90 86 80 72 79 82 80 68 49 27 29 20 16 19 22 31 34
96 93 94 95 97 96 97 93 60 72 81 80 88 89 92 99 100 98 98 92 97 91 88 91 91 84 83 89 85 77 80 89 91 78 66 53 43 36 18 25 32 56 57
96 98 97 98 95 97 96 68 91 78 78 71 82 92 91 97 97 89 98 95 96 98 95 93 95 89 88 92 92 87 88 94 94 92 83 64 54 63 53 40 50 58 58
97 96 98 97 97 97 92 81 94 97 95 84 88 94 91 93 98 97 98 97 95 96 97 96 95 95 96 94 95 90 94 99 100 93 91 77 70 78 68 56 55 61 60
96 96 97 97 96 97 87 87 96 99 99 94 95 93 91 92 96 95 97 96 97 97 97 95 91 97 96 96 95 94 97 98 99 96 94 89 93 90 90 95 95 41 34
97 97 97 96 95 80 82 90 95 95 98 96 94 94 97 90 86 99 95 93 96 98 98 98 97 96 95 97 96 96 98 97 96 98 99 96 96 94 93 100 93 48 57
95 97 96 96 96 97 96 97 90 83 94 93 91 95 95 94 94 94 98 94 96 98 95 97 96 98 98 99 98 97 95 97 94 92 94 95 97 97 97 95 87 82 75
86 83 94 96 96 92 96 98 96 83 92 96 95 97 96 98 98 97 97 99 100 96 93 76 71 83 93 93 96 98 97 93 86 59 62 80 80 77 78 79 76 77 75
75 76 91 96 97 97 97 97 99 91 90 96 97 97 98 97 97 97 96 96 98 92 88 94 96 96 97 96 98 96 94 85 62 59 58 58 59 61 70 75 80 81 86
39 63 77 89 96 100 98 98 86 91 99 99 96 97 97 96 97 96 98 98 91 94 96 99 96 98 96 95 93 92 80 68 58 62 65 65 75 77 78 82 80 75 72
12 57 82 84 90 96 96 98 96 96 94 95 97 97 90 96 96 96 95 97 98 98 99 97 97 97 97 96 85 78 71 76 74 70 63 67 58 59 70 80 86 88 86
16 14 54 91 84 80 97 93 90 89 92 97 99 97 97 94 95 96 96 96 96 96 91 97 99 97 85 76 77 74 76 77 75 75 75 72 76 88 94 95 88 77 76
20 17 18 17 35 74 83 94 97 95 91 83 90 94 80 78 69 64 68 81 96 95 80 97 92 94 86 78 73 69 78 77 82 81 87 87 81 67 51 42 37 36 36
29 25 18 18 19 19 18 17 17 20 27 33 37 33 24 26 31 34 42 53 50 76 58 57 84 94 73 79 71 64 66 72 80 72 42 39 39 37 35 33 28 26 27
38 30 28 24 20 21 24 24 25 24 23 22 22 23 24 23 24 25 25 24 26 26 27 29 43 61 72 75 67 65 65 55 37 36 39 41 40 40 50 51 54 51 35
40 39 33 28 29 26 22 22 22 23 23 23 23 21 22 24 24 24 25 26 28 33 41 38 45 59 54 50 43 43 42 39 38 41 44 48 51 59 72 82 75 60 63
64 55 52 42 35 32 31 31 30 31 33 35 35 36 35 34 35 37 37 41 40 33 31 30 28 30 42 47 44 42 36 41 44 51 54 68 78 83 75 83 81 69 66
87 86 84 84 88 80 78 77 90 84 47 42 42 43 44 45 46 46 47 49 50 50 49 46 40 36 37 38 41 41 42 37 36 61 64 77 87 92 87 75 79 94 86
77 74 73 69 68 66 74 78 82 91 88 92 96 90 82 87 82 61 56 59 59 60 65 68 66 63 62 58 54 55 62 68 73 86 96 97 94 94 89 82 88 98 100
72 71 70 68 70 70 67 64 64 64 67 70 70 74 77 82 85 87 93 99 100 100 94 94 89 88 87 81 85 88 92 85 90 84 87 96 80 82 93 92 85 84 90
80 81 84 74 71 70 66 61 60 61 51 49 49 53 53 52 61 73 64 71 92 98 91 99 100 97 90 85 97 100 98 98 96 92 75 83 86 87 84 96 85 99 99
93 88 80 79 75 71 70 67 54 37 32 27 24 29 34 34 26 24 26 26 28 39 52 65 75 86 91 91 86 88 95 98 99 91 97 98 98 100 99 98 97 99 98

GFSMA_500_rhum_081.txt.gz
RH
15 9 21 37 45 68 93 88 97 96 96 97 69 42 50 51 71 64 58 49 54 65 78 88 94 91 87 80 71 63 59 53 54 42 29 26 26 17 8 6 6 6 7
20 22 25 38 56 75 95 96 97 97 97 88 67 56 40 63 54 51 64 75 83 80 71 79 83 94 87 77 70 64 60 59 59 49 41 32 28 20 12 10 13 8 8
30 40 24 32 53 84 96 96 96 97 93 83 52 58 37 55 54 48 58 71 82 76 69 89 98 92 89 81 74 69 65 64 62 62 55 36 30 23 24 30 39 16 13
19 19 18 31 62 93 97 98 96 97 95 70 31 22 40 49 49 51 57 76 84 80 82 86 93 92 92 83 77 74 72 73 71 66 61 51 39 41 46 50 56 28 25
11 13 24 53 76 88 96 97 97 97 80 74 73 36 22 39 54 71 81 88 78 81 86 89 92 92 88 86 83 82 78 78 78 72 62 54 60 66 71 72 72 58 51
10 17 39 85 88 93 96 96 97 97 86 79 69 64 60 58 62 70 81 88 78 85 86 93 92 90 83 82 87 82 71 72 80 80 71 67 60 84 88 86 81 80 86
11 36 55 92 93 98 96 96 96 96 89 92 89 86 79 78 85 82 91 95 90 88 86 95 91 86 77 74 79 78 76 77 79 85 85 93 93 93 90 90 91 90 91
58 48 70 97 97 93 94 95 97 96 92 96 96 96 90 77 92 97 100 96 85 83 91 94 95 95 82 78 80 76 81 83 86 88 91 87 95 96 88 91 96 95 95
86 86 90 96 97 96 96 96 97 97 96 97 96 94 75 69 90 96 96 92 86 78 84 89 94 97 94 91 80 73 85 89 88 90 88 84 92 96 92 93 96 98 97
98 94 80 89 97 96 96 96 97 97 96 97 96 86 67 68 73 78 86 90 90 89 86 93 86 86 88 97 98 98 96 96 98 96 95 95 98 97 97 97 97 96 96
96 89 74 80 88 97 96 95 96 97 97 96 94 85 86 82 90 87 90 92 90 95 94 93 89 87 87 94 97 95 95 95 87 79 93 98 96 95 97 98 98 90 80
96 97 96 96 100 98 96 96 97 97 95 91 90 88 90 88 84 82 82 83 82 85 84 91 94 95 95 96 96 97 96 96 95 94 89 96 96 98 96 98 84 69 67
57 96 97 97 96 97 97 97 97 97 82 91 97 95 93 95 92 95 91 89 92 96 92 92 89 92 82 79 86 87 92 95 95 95 97 97 95 96 97 92 73 62 63
15 65 95 96 96 96 96 96 96 94 95 94 96 96 96 93 89 94 96 97 98 98 93 98 90 86 83 82 84 79 77 90 98 97 97 97 97 97 94 78 68 68 65
16 14 76 90 97 96 96 96 97 97 97 97 96 96 95 94 96 96 97 94 94 85 97 95 98 94 83 83 84 82 79 80 89 94 96 96 96 95 75 69 67 61 64
20 14 51 79 91 97 97 97 95 97 96 97 97 97 96 96 97 99 98 96 97 96 96 96 97 97 95 90 89 93 80 84 85 88 82 80 77 74 71 73 70 75 82
21 13 14 61 88 86 89 95 92 95 97 97 97 97 97 97 98 97 98 97 96 90 75 75 75 94 82 92 91 85 72 69 57 57 60 64 57 55 60 60 61 66 65
19 19 11 13 21 61 85 90 97 93 86 88 93 94 94 92 86 83 77 55 36 31 27 29 43 49 51 72 79 78 70 61 50 38 38 50 65 67 62 56 52 49 50
23 23 21 12 13 14 16 19 25 19 19 19 19 20 20 20 21 21 22 22 22 21 17 16 20 18 19 23 22 26 35 40 44 51 59 65 64 56 48 44 38 37 40
30 29 25 25 21 18 18 20 21 21 20 19 20 20 20 21 20 19 20 21 21 23 25 26 30 33 32 37 32 35 35 36 34 40 43 41 45 49 36 40 45 45 45
38 35 34 33 31 30 28 25 26 27 25 25 24 24 26 29 31 31 34 37 39 42 45 51 57 63 69 70 62 54 55 52 56 64 78 85 76 77 66 62 59 57 59
83 80 82 65 60 64 62 63 66 62 52 51 59 55 60 63 76 88 87 81 77 75 72 75 80 82 91 90 92 91 87 84 81 100 94 100 97 95 96 94 93 100 96
76 77 77 79 88 91 86 83 79 72 75 77 77 79 80 80 82 84 90 93 82 75 68 66 55 51 57 74 88 99 99 77 83 68 68 64 58 63 66 67 70 72 76
92 84 78 68 69 69 65 62 59 60 62 65 69 70 68 65 63 62 63 64 62 57 52 48 46 39 36 40 47 51 52 50 64 80 94 93 87 99 97 98 97 95 94
96 93 81 71 67 67 70 67 66 64 64 61 57 61 66 68 65 59 58 52 50 48 42 36 35 34 32 30 27 22 22 18 16 16 17 17 17 22 31 22 31 83 93
97 96 90 82 78 74 76 72 69 65 59 58 57 63 65 71 72 64 62 56 54 52 50 43 34 33 31 28 26 23 17 16 14 12 10 9 8 8 7 7 8 11 9